Regional Weather Roundup
Issued by NWS

Home | Current Version | Previous Version | Graphics & Text | Print | Product List | Glossary On
Versions: 1 2 3 4 5 6 7 8 9 10 11 12 13 14 15 16 17 18 19 20 21 22 23 24 25 26 27 28 29 30 31 32 33 34 35 36 37 38 39 40 41 42 43 44 45 46 47 48 49 50
000
ASUS43 KBIS 261602
RWRND

NORTH DAKOTA REGIONAL WEATHER ROUNDUP
NATIONAL WEATHER SERVICE BISMARCK ND
1100 AM CDT SUN MAR 26 2017

NOTE: "FAIR" INDICATES FEW OR NO CLOUDS BELOW 12,000 FEET WITH NO
SIGNIFICANT WEATHER AND/OR OBSTRUCTIONS TO VISIBILITY.


NDZ001>003-009>011-017-261700-
NORTHWEST NORTH DAKOTA

CITY           SKY/WX    TMP DP  RH WIND       PRES   REMARKS
WILLISTON      FAIR      49  34  56 S7        29.90S
MINOT          CLOUDY    51  38  60 CALM      29.90S
MINOT AFB      SUNNY     44  37  75 CALM      29.90S
$$

NDZ018>021-031>035-040>046-261700-
SOUTHWEST NORTH DAKOTA

CITY           SKY/WX    TMP DP  RH WIND       PRES   REMARKS
BISMARCK       CLOUDY    46  36  68 VRB5      29.94R
DICKINSON      FAIR      51  35  54 VRB3      29.91S
GARRISON         N/A     50  36  58 W7        29.92R
HETTINGER ARPT CLOUDY    49  36  61 E3        29.93S
$$

NDZ004>008-012>016-024-026-027-054-261700-
NORTHEAST NORTH DAKOTA

CITY           SKY/WX    TMP DP  RH WIND       PRES   REMARKS
GRAND FORKS    CLOUDY    37  35  92 S9        29.94F
GRND FRKS AFB  CLOUDY    37  36  98 S9        29.94F
DEVILS LAKE    FAIR      41  36  82 SW3       29.93R
$$

NDZ022-023-025-028>030-036>039-047>053-261700-
SOUTHEAST NORTH DAKOTA

CITY           SKY/WX    TMP DP  RH WIND       PRES   REMARKS
FARGO          CLOUDY    39  38  96 SE7       29.96S
JAMESTOWN      CLOUDY    41  37  86 S7        29.90F
$$





USA.gov is the U.S. government's official web portal to all federal, state and local government web resources and services.